Tracking 31032 objects as of 13-Jul-2025
HD Live streaming from Space Station
objects crossing your sky now

STARLINK-32528

Track STARLINK-32528 now!
10-day predictions
STARLINK-32528 is classified as:


NORAD ID: 61724
Int'l Code: 2024-196T
Perigee: 481.3 km
Apogee: 483.5 km
Inclination: 53.2 °
Period: 94.1 minutes
Semi major axis: 6853 km
RCS: Unknown
Launch date: October 30, 2024
Source: United States (US)
Launch site: AIR FORCE EASTERN TEST RANGE (AFETR)
Your satellite tracking list
Your tracking list is empty




NASA's NSSDC Master Catalog

Two Line Element Set (TLE):
1 61724U 24196T   25193.86657852  .00000371  00000-0  24652-4 0  9993
2 61724  53.1599 135.6465 0001632  77.5007 282.6176 15.30194092 39235
Source of the keplerian elements: AFSPC